Location: Newark
(7.0858°N, 171.3717°E)
Time: 21:52:33
(UTC+00:00)

Vanguard 2 - Pass Details

Date: 29 November 2020
Orbit: 553 x 2937 km, 32.9° (Epoch: 19 January)

Event Time Altitude Azimuth Distance (km) Brightness Sun altitude
Rises 04:40:27 0° 317° (NW) 2,969 10.8 20.7°
Reaches altitude 10° 04:42:33 10° 325° (NW) 2,209 10.1 20.2°
Maximum altitude 04:47:24 44° 37° (NE) 1,278 8.5 19.2°
Drops below altitude 10° 04:54:57 10° 107° (ESE) 3,432 10.5 17.5°
Sets 04:58:58 0° 113° (ESE) 4,832 11.2 16.6°
